K0CJC Weather Reports


time (UTC)temp
C
wind
direction
speed
KPH
gust
KPH
rain 1hr
cm
rain 24hr
cm
rain mn
cm
humidity
%
barometer
mb
20260504050521 15 230 4.8 9.7 0.00 0.00 0.00 37
20260504045529 14 218 3.2 11.3 0.00 0.00 0.00 37
20260504044541 14 220 3.2 8.0 0.00 0.00 0.00 37
20260504043529 14 204 3.2 11.3 0.00 0.00 0.00 37
20260504042521 13 223 3.2 12.9 0.00 0.00 0.00 37
20260504041630 13 202 3.2 11.3 0.00 0.00 0.00 37
20260504040521 13 220 3.2 8.0 0.00 0.00 0.00 37
20260504035551 13 223 3.2 9.7 0.00 0.00 0.00 36
20260504034538 14 230 1.6 9.7 0.00 0.00 0.00 36
20260504033530 14 219 1.6 9.7 0.00 0.00 0.00 37
20260504032522 14 221 3.2 8.0 0.00 0.00 0.00 36
20260504031529 14 224 1.6 9.7 0.00 0.00 0.00 36
20260504030522 14 218 1.6 3.2 0.00 0.00 0.00 35
20260504025537 14 222 1.6 9.7 0.00 0.00 0.00 35
20260504024521 15 220 1.6 4.8 0.00 0.00 0.00 34
20260504023530 15 223 1.6 9.7 0.00 0.00 0.00 34
20260504022542 15 217 1.6 4.8 0.00 0.00 0.00 34
20260504021530 15 214 1.6 4.8 0.00 0.00 0.00 34
20260504020522 15 222 0.0 3.2 0.00 0.00 0.00 35
20260504015530 15 211 1.6 3.2 0.00 0.00 0.00 34
20260504014522 15 221 1.6 4.8 0.00 0.00 0.00 32
20260504013530 16 219 1.6 3.2 0.00 0.00 0.00 32
20260504012522 16 221 1.6 3.2 0.00 0.00 0.00 31
20260504011530 16 229 1.6 4.8 0.00 0.00 0.00 30
20260504010522 17 227 3.2 9.7 0.00 0.00 0.00 29
20260504005531 17 225 3.2 8.0 0.00 0.00 0.00 29
20260504004522 17 225 1.6 4.8 0.00 0.00 0.00 28
20260504003530 17 226 1.6 9.7 0.00 0.00 0.00 28
20260504002522 17 219 1.6 4.8 0.00 0.00 0.00 27
20260504001550 17 230 1.6 8.0 0.00 0.00 0.00 27
20260504000522 18 219 1.6 4.8 0.00 0.00 0.00 27
20260503235530 18 264 1.6 8.0 0.00 0.00 0.00 26
20260503234542 18 228 3.2 11.3 0.00 0.00 0.00 25
20260503233530 18 236 3.2 12.9 0.00 0.00 0.00 26
20260503232522 18 245 3.2 9.7 0.00 0.00 0.00 26
20260503231530 19 235 3.2 9.7 0.00 0.00 0.00 25
20260503230522 18 271 4.8 11.3 0.00 0.00 0.00 26
20260503225530 18 235 4.8 12.9 0.00 0.00 0.00 25
20260503224542 19 240 3.2 11.3 0.00 0.00 0.00 25
20260503223530 18 227 1.6 8.0 0.00 0.00 0.00 25
20260503222523 19 222 1.6 8.0 0.00 0.00 0.00 25
20260503221531 20 235 3.2 8.0 0.00 0.00 0.00 24
20260503220542 20 230 3.2 9.7 0.00 0.00 0.00 24
20260503215530 20 234 3.2 9.7 0.00 0.00 0.00 24
20260503214602 20 256 3.2 9.7 0.00 0.00 0.00 24
20260503213530 20 241 3.2 9.7 0.00 0.00 0.00 25
20260503212523 20 232 4.8 12.9 0.00 0.00 0.00 24
20260503211530 20 223 3.2 11.3 0.00 0.00 0.00 24
20260503210523 20 246 3.2 8.0 0.00 0.00 0.00 25
20260503205530 20 231 4.8 11.3 0.00 0.00 0.00 24
20260503204522 20 243 3.2 9.7 0.00 0.00 0.00 25
20260503203536 19 229 3.2 8.0 0.00 0.00 0.00 25
20260503202523 18 229 3.2 11.3 0.00 0.00 0.00 26
20260503201530 18 246 4.8 11.3 0.00 0.00 0.00 26
20260503200523 18 272 3.2 11.3 0.00 0.00 0.00 27
20260503195531 17 338 3.2 11.3 0.00 0.00 0.00 27
20260503194523 18 243 3.2 11.3 0.00 0.00 0.00 26
20260503193531 17 226 3.2 9.7 0.00 0.00 0.00 26
20260503192522 17 252 4.8 16.1 0.00 0.00 0.00 26
20260503191530 17 341 4.8 12.9 0.00 0.00 0.00 27
20260503190523 17 9 6.4 16.1 0.00 0.00 0.00 26
20260503185530 17 0 4.8 12.9 0.00 0.00 0.00 26
20260503184543 16 322 6.4 24.1 0.00 0.00 0.00 27
20260503183551 17 7 6.4 17.7 0.00 0.00 0.00 27
20260503182523 16 333 4.8 22.5 0.00 0.00 0.00 28
20260503181531 16 297 4.8 16.1 0.00 0.00 0.00 28
20260503180523 16 348 6.4 22.5 0.00 0.00 0.00 28
20260503175531 16 351 8.0 20.9 0.00 0.00 0.00 28
20260503174523 16 329 6.4 12.9 0.00 0.00 0.00 29
20260503173533 16 350 4.8 12.9 0.00 0.00 0.00 29
20260503172539 16 0 6.4 17.7 0.00 0.00 0.00 30
20260503171531 15 7 4.8 12.9 0.00 0.00 0.00 31
20260503170603 15 342 6.4 24.1 0.00 0.00 0.00 30
20260503150523 12 342 3.2 11.3 0.00 0.00 0.00 34
20260503130536 8 329 1.6 4.8 0.00 0.00 0.00 66
20260503110524 4 0.0 0.0 0.00 0.00 0.00 96
20260503081534 5 0.0 0.0 0.00 0.00 0.00 87
20260503080524 6 230 0.0 1.6 0.00 0.00 0.00 86
20260503072524 7 230 0.0 1.6 0.00 0.00 0.00 80
20260503071552 7 0.0 0.0 0.00 0.00 0.00 79
20260503070524 7 0.0 0.0 0.00 0.00 0.00 77